074  
ASUS44 KOUN 290910  
RWROK  
 
WEATHER ROUNDUP FOR OKLAHOMA  
NATIONAL WEATHER SERVICE NORMAN OK  
400 AM CDT SAT APR 29 2017  
 
NOTE: "FAIR" INDICATES FEW OR NO CLOUDS BELOW 12,000 FEET WITH NO  
SIGNIFICANT WEATHER AND/OR S TO VISIBILITY
.  
 
OKZ001>007-009>012-014-015-017-291000-  
NORTHWEST OKLAHOMA AND THE PANHANDLE  
 
CITY SKY/WX TMP DP RH WIND PRES REMARKS
 
GAGE TSTM 42 40 92 N22G29 29.86R FOG WCI 33  
GUYMON FLURRIES 37 36 96 N23G31 29.83R WCI 26  
ENID/WOODRING TSTM 52 50 93 N20 29.69R  

 
 
OKZ016-021>023-033>039-044-045-291000-  
SOUTHWEST OKLAHOMA  
 
CITY SKY/WX TMP DP RH WIND PRES REMARKS
 
LAWTON/REGL CLOUDY 74 69 85 VRB5 29.53R  
LAWTON/FT SILL CLOUDY 74 71 89 W6 29.52R  
FREDERICK CLOUDY 64 57 78 N14G25 29.51R  
CLINTON LGT RAIN 48 45 89 N33G45 29.61F  
HOBART CLOUDY 52 50 93 NE30G43 29.50F  
ALTUS AFB LGT RAIN 55 52 88 N36G46 29.57R  

 
 
OKZ018>020-024>031-291000-  
CENTRAL OKLAHOMA  
 
CITY SKY/WX TMP DP RH WIND PRES REMARKS
 
OKLAHOMA CITY TSTM 58 56 93 N25 29.62R FOG  
OKC/WILEY POST TSTM 59 57 93 N20G25 29.62R FOG  
OKC/TINKER AFB LGT RAIN 61 59 95 NE13 29.57S  
GUTHRIE TSTM 58 56 93 W25G35 29.70R  

 
 
OKZ008-013-054>072-291000-  
NORTHEAST OKLAHOMA  
 
CITY SKY/WX TMP DP RH WIND PRES REMARKS
 
TULSA LGT RAIN 62 60 93 N10G18 29.61F  
TULSA/JONES LGT RAIN 63 59 87 NE20G30 29.60F  
PONCA CITY TSTM 53 50 89 NE20G28 29.71F  
BARTLESVILLE CLOUDY 56 54 93 NE16G30 29.68F  
MUSKOGEE MOCLDY 66 65 96 N8 29.60F  

 
 
OKZ032-040>043-046>053-073>077-291000-  
SOUTH CENTRAL/SOUTHEAST OKLAHOMA  
 
CITY SKY/WX TMP DP RH WIND PRES REMARKS
 
ARDMORE/DWNTWN CLOUDY 75 68 78 SW10G20 29.52S  
MCALESTER CLOUDY 78 70 76 S17G30 29.56R  

 
 
 
 
CLICK HERE TO GO TO PREVIOUS BULLETINS.

The Nexlab OK Page Main Text Page